Date String (YYYY-MM-DD hh:mm:ss) UTC,Instrument flags,Ambient pressure (hPa),Sample flow (lpm),Bypass flow (lpm),Sample temperature (°C),Ambient temperature (°C),ASC tube jacket temperature (°C),LED temperature (°C),Box temperature (°C),Sample RH (%),Span deviation,Mass concentration (μg/m³),Mass concentration (μg/m³),Mass concentration (μg/m³)
DateTimeUTC,F1_M11,P_M11,Q1_M11,Q2_M11,T1_M11,T2_M11,T3_M11,T4_M11,T5_M11,U1_M11,ZSPAN_M11,X0_M11,X2_M11,X1_M11
2021-08-24 17:00:00,,0828.5,5.01,0.00,29.0,26.7,00.0,38.2,30.7,22.7,0001.8,0010.58,0004.00,0003.46
2021-08-24 17:01:00,,0828.5,5.01,0.00,29.0,27.1,00.0,38.1,30.8,22.4,0001.9,0010.74,0004.03,0003.47
2021-08-24 17:02:00,,0828.5,4.99,0.00,29.1,27.5,00.0,38.1,30.9,21.8,0001.9,0011.17,0004.10,0003.51
2021-08-24 17:03:00,,0828.5,5.00,0.00,29.1,27.8,00.0,38.1,31.0,22.2,0001.8,0011.07,0004.12,0003.52
2021-08-24 17:04:00,,0828.4,5.01,0.00,29.2,27.7,00.0,38.2,30.9,21.2,0001.6,0010.55,0004.11,0003.53
2021-08-24 17:05:00,,0828.4,5.00,0.00,29.1,26.3,00.0,38.1,30.5,21.3,0001.5,0010.47,0004.13,0003.53
2021-08-24 17:06:00,,0828.3,5.00,0.00,28.9,25.7,00.0,38.1,30.3,20.2,0002.0,0010.42,0004.16,0003.55
2021-08-24 17:07:00,,0828.3,5.00,0.00,28.9,26.2,00.0,38.1,30.5,17.9,0002.2,0010.32,0004.16,0003.57
2021-08-24 17:08:00,,0828.3,5.01,0.00,28.9,26.6,00.0,38.1,30.6,18.8,0002.5,0010.09,0004.18,0003.59
2021-08-24 17:09:00,,0828.3,5.01,0.00,28.9,27.1,00.0,38.1,30.7,18.5,0001.0,0010.41,0004.20,0003.59
2021-08-24 17:10:00,,0828.3,4.98,0.00,29.0,27.4,00.0,38.1,30.8,18.8,0002.2,0009.82,0004.19,0003.59
2021-08-24 17:11:00,,0828.4,5.01,0.00,29.0,27.8,00.0,38.1,30.9,18.0,0002.2,0009.34,0004.18,0003.61
2021-08-24 17:12:00,,0828.3,5.00,0.00,29.1,28.0,00.0,38.1,31.0,18.5,0002.7,0009.65,0004.16,0003.62
2021-08-24 17:13:00,,0828.3,5.01,0.00,29.2,28.0,00.0,38.1,31.0,18.7,0002.6,0009.44,0004.13,0003.61
2021-08-24 17:14:00,,0828.3,5.00,0.00,29.1,26.7,00.0,38.1,30.7,18.7,0002.7,0009.45,0004.10,0003.62
2021-08-24 17:15:00,,0828.3,5.00,0.00,29.0,26.0,00.0,38.1,30.4,19.8,0003.2,0010.14,0004.12,0003.62
2021-08-24 17:16:00,,0828.3,5.00,0.00,28.9,26.4,00.0,38.1,30.6,20.2,0003.0,0010.14,0004.12,0003.63
2021-08-24 17:17:00,,0828.3,5.01,0.00,29.0,26.8,00.0,38.1,30.7,20.0,0002.8,0010.03,0004.10,0003.63
2021-08-24 17:18:00,,0828.3,4.99,0.00,29.0,27.2,00.0,38.0,30.8,19.9,0002.8,0010.31,0004.11,0003.62
2021-08-24 17:19:00,,0828.3,4.99,0.00,29.0,27.6,00.0,38.0,30.9,20.1,0002.3,0010.59,0004.08,0003.60
2021-08-24 17:20:00,,0828.3,5.00,0.00,29.1,27.9,00.0,38.1,31.0,19.5,0001.7,0010.05,0004.07,0003.61
2021-08-24 17:21:00,,0828.3,5.00,0.00,29.1,27.2,00.0,38.1,30.8,19.7,0001.8,0009.89,0004.04,0003.62
2021-08-24 17:22:00,,0828.3,5.01,0.00,29.0,25.8,00.0,38.0,30.4,19.7,0001.9,0011.42,0004.05,0003.63
2021-08-24 17:23:00,,0828.3,5.00,0.00,28.9,26.0,00.0,38.0,30.4,19.6,0001.3,0011.15,0004.04,0003.62
2021-08-24 17:24:00,,0828.3,4.99,0.00,28.9,26.4,00.0,38.0,30.5,19.9,0000.8,0010.95,0004.05,0003.63
2021-08-24 17:25:00,,0828.3,5.01,0.00,28.9,26.9,00.0,38.0,30.6,21.2,0001.4,0011.09,0004.09,0003.64
2021-08-24 17:26:00,,0828.3,4.99,0.00,28.9,27.3,00.0,38.0,30.7,20.0,0001.0,0010.28,0004.08,0003.65
2021-08-24 17:27:00,,0828.3,5.01,0.00,29.0,27.6,00.0,38.0,30.8,20.5,0001.5,0010.03,0004.07,0003.66
2021-08-24 17:28:00,,0828.3,4.99,0.00,29.0,27.9,00.0,38.0,30.9,20.7,0002.0,0010.06,0004.07,0003.66
2021-08-24 17:29:00,,0828.2,5.01,0.00,29.1,27.1,00.0,38.0,30.7,22.7,0001.6,0011.14,0004.09,0003.66
2021-08-24 17:30:00,,0828.2,5.00,0.00,28.9,25.8,00.0,38.0,30.4,23.2,0001.9,0011.08,0004.10,0003.67
2021-08-24 17:31:00,,0828.2,5.00,0.00,28.8,25.9,00.0,38.0,30.3,21.2,0002.6,0011.06,0004.10,0003.68
2021-08-24 17:32:00,,0828.2,5.00,0.00,28.8,26.4,00.0,38.0,30.5,21.0,0002.4,0012.37,0004.09,0003.67
2021-08-24 17:33:00,,0828.2,4.99,0.00,28.9,26.8,00.0,37.9,30.6,21.1,0002.7,0011.65,0004.10,0003.67
2021-08-24 17:34:00,,0828.2,5.01,0.00,28.9,27.2,00.0,37.9,30.7,21.1,0002.6,0011.33,0004.10,0003.68
2021-08-24 17:35:00,,0828.2,5.00,0.00,29.0,27.6,00.0,38.0,30.8,21.2,0002.5,0011.52,0004.10,0003.68
2021-08-24 17:36:00,,0828.2,4.99,0.00,29.0,27.9,00.0,38.0,30.9,21.7,0002.0,0011.65,0004.10,0003.68
2021-08-24 17:37:00,,0828.2,5.01,0.00,29.0,27.2,00.0,38.0,30.7,21.6,0002.5,0011.65,0004.10,0003.68
2021-08-24 17:38:00,,0828.1,5.00,0.00,28.9,25.8,00.0,38.0,30.3,18.6,0002.0,0011.73,0004.09,0003.67
2021-08-24 17:39:00,,0828.1,5.00,0.00,28.8,25.9,00.0,37.9,30.3,19.8,0001.8,0012.29,0004.12,0003.69
2021-08-24 17:40:00,,0828.1,5.00,0.00,28.8,26.3,00.0,37.9,30.4,21.6,0002.4,0011.54,0004.14,0003.70
2021-08-24 17:41:00,,0828.2,5.01,0.00,28.8,26.7,00.0,37.9,30.5,22.1,0002.3,0011.34,0004.15,0003.70
2021-08-24 17:42:00,,0828.2,5.00,0.00,28.8,27.1,00.0,37.9,30.6,22.6,0002.3,0011.49,0004.19,0003.70
2021-08-24 17:43:00,,0828.2,5.00,0.00,28.9,27.5,00.0,37.9,30.7,21.7,0002.3,0010.45,0004.26,0003.72
2021-08-24 17:44:00,,0828.3,5.00,0.00,28.9,27.8,00.0,37.9,30.8,21.6,0002.0,0009.38,0004.25,0003.73
2021-08-24 17:45:00,,0828.2,4.99,0.00,29.0,27.0,00.0,37.9,30.6,21.7,0002.0,0009.28,0004.26,0003.73
2021-08-24 17:46:00,,0828.2,5.01,0.00,28.8,25.8,00.0,37.9,30.2,20.9,0002.3,0009.23,0004.28,0003.74
2021-08-24 17:47:00,,0828.2,4.99,0.00,28.7,25.9,00.0,37.9,30.3,15.2,0001.9,0008.94,0004.26,0003.74
2021-08-24 17:48:00,,0828.1,5.00,0.00,28.7,26.4,00.0,37.9,30.4,13.3,0001.3,0009.48,0004.29,0003.76
2021-08-24 17:49:00,,0828.1,5.01,0.00,28.8,26.8,00.0,37.9,30.5,13.0,0001.2,0010.19,0004.30,0003.78
2021-08-24 17:50:00,,0828.0,4.99,0.00,28.8,27.2,00.0,37.9,30.6,13.2,0000.4,0010.72,0004.30,0003.78
2021-08-24 17:51:00,,0828.1,5.00,0.00,28.9,27.6,00.0,37.9,30.7,13.0,0000.0,0010.95,0004.31,0003.78
2021-08-24 17:52:00,,0828.1,5.00,0.00,28.9,27.9,00.0,37.9,30.8,12.5,0000.0,0010.39,0004.30,0003.79
2021-08-24 17:53:00,,0828.1,5.00,0.00,29.0,27.8,00.0,37.9,30.8,12.6,0000.0,0010.36,0004.27,0003.79
2021-08-24 17:54:00,,0828.1,5.01,0.00,28.9,26.5,00.0,37.9,30.4,12.0,0000.0,0010.29,0004.23,0003.78
2021-08-24 17:55:00,,0828.0,5.00,0.00,28.8,25.8,00.0,37.9,30.2,13.0,0000.0,0010.44,0004.24,0003.77
2021-08-24 17:56:00,,0828.0,5.00,0.00,28.8,26.2,00.0,37.9,30.4,12.6,0000.0,0011.05,0004.22,0003.76
2021-08-24 17:57:00,,0827.9,5.00,0.00,28.8,26.6,00.0,37.9,30.5,12.0,0000.0,0011.46,0004.17,0003.75
2021-08-24 17:58:00,,0828.0,5.00,0.00,28.8,27.0,00.0,37.9,30.6,12.6,0000.0,0011.93,0004.14,0003.73
2021-08-24 17:59:00,,0828.0,5.00,0.00,28.8,27.4,00.0,37.9,30.7,13.2,0000.0,0011.54,0004.11,0003.71
